QPF
0.00 0.00 0.00 0.00 0.00 0.00 0.00 0.00 0.01 0.00 0.00 0.01 0.01 0.01 0.01 0.00 0.01 0.01 0.02 0.02 0.03 0.02 0.02 0.02 0.02 0.02 0.03 0.04 0.04 0.04 0.02 0.01 0.00 0.00 0.01 0.01 0.01 0.02 0.04 0.03 0.02 0.02 0.03 0.03
0.00 0.00 0.00 0.00 0.00 0.00 0.00 0.00 0.01 0.01 0.00 0.01 0.01 0.01 0.01 0.01 0.02 0.02 0.02 0.02 0.03 0.03 0.02 0.02 0.02 0.02 0.02 0.03 0.04 0.03 0.02 0.01 0.00 0.00 0.00 0.01 0.00 0.01 0.02 0.04 0.05 0.03 0.02 0.03
0.00 0.00 0.00 0.00 0.01 0.01 0.00 0.00 0.01 0.00 0.00 0.01 0.00 0.01 0.01 0.01 0.01 0.02 0.02 0.02 0.03 0.03 0.02 0.02 0.02 0.02 0.03 0.03 0.03 0.04 0.03 0.02 0.01 0.01 0.01 0.01 0.01 0.00 0.00 0.01 0.04 0.06 0.05 0.03
0.00 0.00 0.00 0.00 0.01 0.01 0.01 0.01 0.01 0.01 0.01 0.01 0.01 0.00 0.01 0.01 0.01 0.02 0.02 0.02 0.03 0.03 0.02 0.02 0.02 0.02 0.03 0.03 0.03 0.03 0.04 0.02 0.02 0.02 0.01 0.01 0.01 0.01 0.00 0.00 0.01 0.03 0.06 0.06
0.00 0.00 0.00 0.00 0.00 0.01 0.01 0.01 0.01 0.01 0.01 0.01 0.01 0.00 0.01 0.01 0.01 0.01 0.02 0.02 0.02 0.03 0.02 0.02 0.03 0.02 0.02 0.03 0.03 0.03 0.04 0.03 0.02 0.02 0.01 0.01 0.01 0.02 0.01 0.00 0.00 0.00 0.01 0.04
0.00 0.00 0.00 0.00 0.00 0.01 0.01 0.01 0.02 0.01 0.01 0.01 0.01 0.00 0.01 0.01 0.01 0.01 0.01 0.01 0.01 0.02 0.02 0.02 0.02 0.03 0.02 0.02 0.02 0.03 0.03 0.03 0.03 0.03 0.02 0.01 0.01 0.02 0.02 0.01 0.01 0.00 0.01 0.01
0.00 0.00 0.00 0.00 0.00 0.00 0.00 0.01 0.01 0.02 0.01 0.01 0.01 0.01 0.01 0.01 0.01 0.01 0.01 0.01 0.01 0.01 0.02 0.01 0.01 0.02 0.02 0.02 0.02 0.02 0.02 0.02 0.02 0.03 0.02 0.02 0.02 0.01 0.01 0.02 0.02 0.01 0.01 0.01
0.00 0.00 0.00 0.00 0.01 0.01 0.01 0.01 0.01 0.01 0.01 0.00 0.00 0.01 0.01 0.01 0.01 0.01 0.01 0.02 0.01 0.01 0.01 0.01 0.01 0.02 0.01 0.01 0.01 0.02 0.02 0.01 0.01 0.02 0.02 0.02 0.02 0.02 0.01 0.01 0.02 0.02 0.01 0.01
0.00 0.00 0.00 0.00 0.00 0.01 0.01 0.01 0.01 0.01 0.01 0.01 0.01 0.01 0.01 0.01 0.02 0.02 0.02 0.02 0.01 0.01 0.01 0.01 0.01 0.01 0.01 0.00 0.01 0.01 0.01 0.01 0.01 0.01 0.01 0.01 0.01 0.01 0.01 0.01 0.01 0.01 0.01 0.01
0.00 0.00 0.00 0.00 0.00 0.01 0.01 0.01 0.01 0.02 0.02 0.01 0.01 0.01 0.01 0.01 0.01 0.01 0.02 0.02 0.01 0.01 0.01 0.01 0.00 0.00 0.00 0.00 0.00 0.00 0.01 0.01 0.01 0.01 0.01 0.01 0.01 0.01 0.01 0.01 0.01 0.01 0.01 0.01
0.00 0.00 0.00 0.00 0.01 0.01 0.01 0.01 0.01 0.01 0.01 0.01 0.01 0.01 0.01 0.01 0.01 0.01 0.01 0.01 0.01 0.01 0.01 0.01 0.01 0.01 0.01 0.01 0.00 0.00 0.01 0.01 0.01 0.01 0.01 0.01 0.01 0.01 0.01 0.01 0.00 0.00 0.00 0.01
0.01 0.01 0.00 0.00 0.01 0.01 0.01 0.01 0.01 0.02 0.01 0.01 0.01 0.01 0.01 0.01 0.01 0.01 0.01 0.01 0.01 0.01 0.01 0.00 0.00 0.00 0.00 0.00 0.00 0.00 0.00 0.00 0.00 0.00 0.01 0.01 0.01 0.01 0.00 0.00 0.00 0.00 0.00 0.00
0.03 0.02 0.01 0.01 0.00 0.00 0.00 0.01 0.01 0.02 0.02 0.01 0.01 0.01 0.01 0.01 0.01 0.01 0.01 0.01 0.01 0.01 0.00 0.00 0.00 0.00 0.00 0.00 0.00 0.00 0.00 0.00 0.00 0.00 0.01 0.01 0.01 0.01 0.01 0.00 0.00 0.00 0.00 0.00
0.05 0.04 0.02 0.01 0.01 0.01 0.01 0.00 0.01 0.02 0.03 0.01 0.01 0.00 0.01 0.01 0.01 0.01 0.01 0.01 0.01 0.01 0.01 0.00 0.00 0.00 0.00 0.00 0.00 0.00 0.00 0.00 0.00 0.00 0.01 0.01 0.01 0.00 0.00 0.00 0.00 0.00 0.00 0.00
0.04 0.04 0.02 0.01 0.01 0.01 0.01 0.00 0.01 0.01 0.01 0.01 0.00 0.00 0.01 0.01 0.01 0.01 0.01 0.01 0.01 0.01 0.00 0.00 0.00 0.00 0.00 0.00 0.00 0.00 0.00 0.00 0.00 0.00 0.01 0.01 0.01 0.01 0.00 0.00 0.00 0.00 0.00 0.00
0.02 0.03 0.02 0.01 0.00 0.00 0.00 0.00 0.00 0.00 0.01 0.01 0.01 0.01 0.01 0.01 0.01 0.00 0.00 0.00 0.00 0.00 0.00 0.00 0.00 0.00 0.00 0.00 0.00 0.00 0.00 0.00 0.00 0.01 0.01 0.01 0.01 0.01 0.01 0.00 0.00 0.00 0.00 0.00
0.03 0.03 0.03 0.02 0.01 0.01 0.01 0.00 0.00 0.00 0.01 0.01 0.01 0.01 0.01 0.01 0.01 0.01 0.01 0.00 0.00 0.00 0.00 0.00 0.00 0.00 0.00 0.00 0.00 0.00 0.00 0.00 0.00 0.01 0.01 0.01 0.01 0.01 0.01 0.01 0.00 0.00 0.00 0.00
0.03 0.03 0.04 0.03 0.02 0.02 0.01 0.01 0.00 0.01 0.01 0.01 0.01 0.01 0.00 0.01 0.01 0.01 0.01 0.01 0.01 0.00 0.00 0.00 0.00 0.00 0.00 0.00 0.00 0.00 0.00 0.00 0.01 0.01 0.01 0.01 0.01 0.01 0.01 0.01 0.01 0.00 0.00 0.00
0.03 0.04 0.05 0.04 0.03 0.02 0.01 0.01 0.01 0.01 0.01 0.01 0.01 0.01 0.01 0.01 0.01 0.01 0.01 0.01 0.01 0.01 0.01 0.01 0.00 0.00 0.01 0.01 0.01 0.01 0.01 0.01 0.01 0.01 0.01 0.01 0.01 0.01 0.01 0.00 0.00 0.00 0.00 0.00
0.03 0.04 0.06 0.05 0.04 0.02 0.01 0.01 0.01 0.01 0.01 0.01 0.01 0.01 0.01 0.01 0.01 0.01 0.01 0.01 0.02 0.02 0.02 0.02 0.01 0.01 0.01 0.02 0.02 0.02 0.02 0.02 0.02 0.01 0.01 0.01 0.01 0.01 0.01 0.00 0.00 0.00 0.00 0.00
0.03 0.05 0.05 0.04 0.03 0.02 0.01 0.01 0.01 0.02 0.02 0.01 0.01 0.01 0.01 0.01 0.01 0.01 0.01 0.01 0.01 0.02 0.02 0.02 0.01 0.02 0.02 0.02 0.02 0.02 0.02 0.02 0.02 0.02 0.02 0.02 0.02 0.01 0.01 0.01 0.01 0.00 0.01 0.01
0.02 0.03 0.03 0.03 0.03 0.02 0.01 0.01 0.02 0.02 0.01 0.01 0.02 0.02 0.02 0.02 0.01 0.01 0.01 0.01 0.01 0.02 0.02 0.01 0.01 0.02 0.02 0.03 0.03 0.03 0.02 0.02 0.02 0.03 0.03 0.03 0.02 0.02 0.02 0.02 0.01 0.01 0.01 0.01
0.02 0.02 0.02 0.02 0.02 0.02 0.02 0.02 0.02 0.02 0.02 0.02 0.02 0.02 0.02 0.02 0.02 0.02 0.01 0.01 0.01 0.01 0.01 0.01 0.01 0.02 0.02 0.03 0.03 0.03 0.02 0.02 0.02 0.03 0.03 0.03 0.03 0.02 0.02 0.02 0.02 0.02 0.02 0.02
0.01 0.01 0.01 0.01 0.02 0.02 0.02 0.02 0.02 0.02 0.02 0.02 0.02 0.01 0.01 0.02 0.01 0.01 0.01 0.01 0.01 0.01 0.01 0.01 0.01 0.01 0.02 0.02 0.03 0.03 0.03 0.02 0.03 0.03 0.03 0.03 0.03 0.03 0.02 0.02 0.03 0.03 0.03 0.03
0.01 0.01 0.01 0.02 0.02 0.01 0.01 0.01 0.01 0.01 0.01 0.01 0.01 0.01 0.01 0.01 0.01 0.01 0.01 0.01 0.01 0.01 0.01 0.01 0.01 0.02 0.02 0.02 0.02 0.03 0.03 0.03 0.03 0.02 0.03 0.03 0.04 0.03 0.03 0.03 0.03 0.03 0.03 0.03
0.01 0.01 0.02 0.02 0.01 0.01 0.01 0.01 0.01 0.01 0.01 0.01 0.01 0.01 0.01 0.01 0.02 0.02 0.01 0.01 0.01 0.01 0.01 0.01 0.01 0.01 0.02 0.02 0.02 0.03 0.03 0.03 0.03 0.03 0.03 0.03 0.04 0.05 0.04 0.04 0.04 0.02 0.02 0.02
MSLP
1009.88 1009.79 1009.59 1009.31 1009.01 1008.71 1008.45 1008.22 1008.00 1007.77 1007.50 1007.19 1006.84 1006.50 1006.23 1006.09 1006.14 1006.42 1006.91 1007.60 1008.39 1009.21 1009.95 1010.53 1010.92 1011.12 1011.16 1011.12 1011.10 1011.18 1011.43 1011.88 1012.53 1013.34 1014.23 1015.12 1015.96 1016.68 1017.26 1017.70 1018.03 1018.28 1018.51 1018.74
1008.76 1008.68 1008.52 1008.34 1008.18 1008.05 1007.97 1007.91 1007.83 1007.69 1007.43 1007.07 1006.61 1006.12 1005.67 1005.37 1005.28 1005.47 1005.95 1006.66 1007.55 1008.49 1009.40 1010.16 1010.72 1011.07 1011.24 1011.30 1011.34 1011.45 1011.70 1012.14 1012.76 1013.54 1014.40 1015.29 1016.14 1016.87 1017.49 1017.97 1018.33 1018.62 1018.86 1019.10
1007.33 1007.29 1007.23 1007.20 1007.24 1007.35 1007.51 1007.67 1007.76 1007.72 1007.49 1007.07 1006.49 1005.82 1005.17 1004.66 1004.39 1004.43 1004.80 1005.49 1006.40 1007.43 1008.47 1009.39 1010.13 1010.66 1010.99 1011.19 1011.34 1011.52 1011.81 1012.26 1012.87 1013.63 1014.48 1015.36 1016.22 1016.99 1017.65 1018.19 1018.63 1018.97 1019.26 1019.53
1005.78 1005.78 1005.83 1005.96 1006.22 1006.57 1006.98 1007.36 1007.63 1007.69 1007.50 1007.04 1006.35 1005.51 1004.66 1003.93 1003.45 1003.31 1003.55 1004.14 1005.03 1006.10 1007.22 1008.28 1009.18 1009.89 1010.41 1010.79 1011.08 1011.37 1011.74 1012.23 1012.85 1013.60 1014.44 1015.33 1016.20 1017.01 1017.73 1018.35 1018.87 1019.30 1019.66 1019.97
1004.34 1004.35 1004.46 1004.73 1005.15 1005.69 1006.30 1006.86 1007.27 1007.43 1007.27 1006.79 1006.01 1005.05 1004.04 1003.13 1002.47 1002.16 1002.25 1002.75 1003.57 1004.63 1005.80 1006.95 1008.00 1008.88 1009.58 1010.14 1010.60 1011.03 1011.50 1012.06 1012.72 1013.48 1014.32 1015.21 1016.10 1016.94 1017.73 1018.42 1019.03 1019.55 1019.99 1020.36
1003.26 1003.21 1003.32 1003.62 1004.11 1004.75 1005.45 1006.10 1006.58 1006.79 1006.65 1006.16 1005.36 1004.34 1003.24 1002.24 1001.47 1001.04 1001.03 1001.42 1002.18 1003.20 1004.38 1005.59 1006.73 1007.75 1008.63 1009.36 1010.00 1010.59 1011.18 1011.82 1012.53 1013.32 1014.16 1015.05 1015.94 1016.81 1017.64 1018.40 1019.09 1019.69 1020.22 1020.66
1002.76 1002.57 1002.57 1002.79 1003.21 1003.79 1004.44 1005.06 1005.52 1005.72 1005.58 1005.11 1004.32 1003.33 1002.26 1001.26 1000.48 1000.03 999.97 1000.31 1001.00 1001.98 1003.13 1004.35 1005.56 1006.68 1007.69 1008.58 1009.38 1010.12 1010.85 1011.59 1012.36 1013.17 1014.02 1014.90 1015.78 1016.65 1017.50 1018.30 1019.05 1019.72 1020.32 1020.83
1002.93 1002.54 1002.33 1002.33 1002.53 1002.91 1003.37 1003.83 1004.16 1004.28 1004.12 1003.67 1002.96 1002.08 1001.13 1000.26 999.59 999.21 999.18 999.51 1000.17 1001.09 1002.20 1003.40 1004.62 1005.79 1006.89 1007.91 1008.85 1009.73 1010.58 1011.42 1012.25 1013.09 1013.94 1014.80 1015.66 1016.51 1017.36 1018.17 1018.95 1019.67 1020.33 1020.89
1003.77 1003.11 1002.61 1002.30 1002.17 1002.22 1002.36 1002.54 1002.66 1002.63 1002.42 1002.01 1001.42 1000.72 999.99 999.35 998.88 998.66 998.73 999.10 999.75 1000.63 1001.68 1002.83 1004.01 1005.19 1006.33 1007.43 1008.47 1009.47 1010.43 1011.35 1012.24 1013.11 1013.96 1014.80 1015.62 1016.44 1017.26 1018.06 1018.84 1019.59 1020.28 1020.90
1005.11 1004.19 1003.37 1002.69 1002.17 1001.80 1001.56 1001.39 1001.23 1001.02 1000.74 1000.37 999.93 999.45 999.00 998.64 998.44 998.44 998.67 999.12 999.79 1000.62 1001.59 1002.65 1003.76 1004.89 1006.03 1007.16 1008.27 1009.35 1010.39 1011.39 1012.33 1013.23 1014.08 1014.90 1015.69 1016.46 1017.24 1018.02 1018.79 1019.55 1020.27 1020.92
1006.72 1005.57 1004.46 1003.43 1002.52 1001.75 1001.10 1000.57 1000.12 999.73 999.38 999.05 998.75 998.51 998.35 998.30 998.39 998.63 999.02 999.56 1000.23 1001.01 1001.89 1002.83 1003.83 1004.88 1005.97 1007.08 1008.21 1009.34 1010.44 1011.50 1012.49 1013.42 1014.28 1015.08 1015.85 1016.59 1017.33 1018.08 1018.84 1019.60 1020.33 1021.02
1008.31 1007.01 1005.69 1004.40 1003.18 1002.06 1001.08 1000.24 999.55 999.00 998.58 998.29 998.13 998.11 998.20 998.43 998.77 999.22 999.75 1000.36 1001.02 1001.73 1002.48 1003.29 1004.15 1005.08 1006.08 1007.15 1008.26 1009.40 1010.54 1011.64 1012.67 1013.63 1014.51 1015.32 1016.07 1016.80 1017.52 1018.26 1019.01 1019.77 1020.51 1021.22
1009.63 1008.30 1006.89 1005.46 1004.06 1002.74 1001.54 1000.50 999.64 998.98 998.53 998.28 998.24 998.37 998.67 999.10 999.62 1000.21 1000.82 1001.45 1002.06 1002.67 1003.29 1003.95 1004.66 1005.45 1006.33 1007.31 1008.38 1009.50 1010.64 1011.76 1012.83 1013.82 1014.72 1015.55 1016.32 1017.06 1017.79 1018.52 1019.28 1020.05 1020.81 1021.54
1010.58 1009.32 1007.96 1006.54 1005.12 1003.75 1002.48 1001.37 1000.45 999.76 999.32 999.11 999.14 999.38 999.79 1000.33 1000.94 1001.57 1002.19 1002.77 1003.30 1003.79 1004.26 1004.75 1005.30 1005.94 1006.69 1007.57 1008.55 1009.63 1010.74 1011.86 1012.94 1013.95 1014.89 1015.75 1016.55 1017.32 1018.07 1018.84 1019.62 1020.40 1021.19 1021.94
1011.14 1010.06 1008.87 1007.60 1006.31 1005.04 1003.86 1002.82 1001.96 1001.32 1000.92 1000.76 1000.83 1001.10 1001.53 1002.07 1002.67 1003.26 1003.82 1004.30 1004.71 1005.05 1005.37 1005.69 1006.08 1006.56 1007.18 1007.93 1008.82 1009.81 1010.87 1011.96 1013.03 1014.05 1015.00 1015.90 1016.74 1017.55 1018.35 1019.15 1019.96 1020.78 1021.59 1022.35
1011.45 1010.62 1009.68 1008.68 1007.64 1006.61 1005.64 1004.78 1004.07 1003.55 1003.22 1003.10 1003.18 1003.43 1003.81 1004.27 1004.76 1005.23 1005.65 1005.99 1006.25 1006.45 1006.61 1006.79 1007.03 1007.37 1007.85 1008.47 1009.24 1010.12 1011.10 1012.12 1013.14 1014.14 1015.11 1016.02 1016.90 1017.75 1018.59 1019.44 1020.29 1021.13 1021.95 1022.73
1011.75 1011.19 1010.55 1009.86 1009.15 1008.43 1007.76 1007.16 1006.66 1006.29 1006.06 1005.98 1006.03 1006.21 1006.47 1006.79 1007.11 1007.42 1007.66 1007.84 1007.95 1008.01 1008.04 1008.09 1008.21 1008.42 1008.77 1009.25 1009.88 1010.64 1011.49 1012.41 1013.36 1014.32 1015.26 1016.17 1017.07 1017.95 1018.82 1019.70 1020.57 1021.42 1022.25 1023.03
1012.29 1011.99 1011.64 1011.28 1010.90 1010.52 1010.16 1009.84 1009.57 1009.37 1009.24 1009.18 1009.19 1009.25 1009.37 1009.50 1009.63 1009.74 1009.81 1009.82 1009.79 1009.74 1009.67 1009.63 1009.65 1009.76 1009.99 1010.34 1010.83 1011.44 1012.15 1012.94 1013.78 1014.65 1015.54 1016.43 1017.31 1018.19 1019.08 1019.95 1020.82 1021.67 1022.47 1023.23
1013.31 1013.22 1013.12 1013.02 1012.94 1012.85 1012.78 1012.71 1012.65 1012.59 1012.53 1012.47 1012.42 1012.36 1012.31 1012.26 1012.19 1012.11 1012.02 1011.90 1011.77 1011.63 1011.50 1011.40 1011.36 1011.39 1011.52 1011.75 1012.10 1012.56 1013.11 1013.76 1014.47 1015.23 1016.03 1016.86 1017.71 1018.56 1019.42 1020.26 1021.10 1021.90 1022.65 1023.34
1014.93 1014.98 1015.05 1015.15 1015.27 1015.40 1015.53 1015.64 1015.73 1015.76 1015.74 1015.66 1015.53 1015.36 1015.15 1014.93 1014.69 1014.46 1014.23 1014.02 1013.82 1013.64 1013.48 1013.36 1013.29 1013.27 1013.33 1013.46 1013.67 1013.99 1014.39 1014.88 1015.45 1016.09 1016.79 1017.53 1018.31 1019.10 1019.90 1020.68 1021.44 1022.16 1022.83 1023.44
1017.13 1017.25 1017.41 1017.61 1017.83 1018.08 1018.32 1018.53 1018.68 1018.75 1018.73 1018.60 1018.39 1018.10 1017.76 1017.40 1017.03 1016.68 1016.37 1016.11 1015.88 1015.70 1015.56 1015.45 1015.37 1015.33 1015.33 1015.38 1015.49 1015.67 1015.93 1016.27 1016.71 1017.22 1017.81 1018.45 1019.14 1019.84 1020.55 1021.25 1021.90 1022.51 1023.07 1023.56
1019.79 1019.93 1020.10 1020.30 1020.53 1020.79 1021.04 1021.25 1021.40 1021.44 1021.38 1021.19 1020.89 1020.51 1020.07 1019.60 1019.15 1018.74 1018.39 1018.11 1017.90 1017.75 1017.64 1017.56 1017.50 1017.46 1017.42 1017.41 1017.43 1017.50 1017.64 1017.86 1018.17 1018.57 1019.04 1019.58 1020.17 1020.78 1021.38 1021.96 1022.50 1022.98 1023.39 1023.75
1022.68 1022.79 1022.91 1023.05 1023.21 1023.39 1023.57 1023.72 1023.79 1023.77 1023.63 1023.37 1023.00 1022.54 1022.03 1021.51 1021.02 1020.59 1020.24 1019.99 1019.81 1019.70 1019.64 1019.61 1019.58 1019.54 1019.48 1019.43 1019.39 1019.38 1019.42 1019.54 1019.74 1020.03 1020.41 1020.85 1021.33 1021.84 1022.33 1022.79 1023.19 1023.54 1023.81 1024.03
1025.56 1025.62 1025.64 1025.67 1025.71 1025.77 1025.82 1025.85 1025.81 1025.70 1025.47 1025.15 1024.72 1024.22 1023.68 1023.15 1022.66 1022.24 1021.92 1021.71 1021.58 1021.52 1021.51 1021.51 1021.51 1021.47 1021.41 1021.33 1021.24 1021.17 1021.14 1021.18 1021.30 1021.51 1021.79 1022.14 1022.53 1022.93 1023.31 1023.65 1023.93 1024.14 1024.28 1024.36
1028.19 1028.17 1028.10 1028.00 1027.90 1027.80 1027.71 1027.60 1027.45 1027.24 1026.94 1026.56 1026.10 1025.59 1025.06 1024.55 1024.09 1023.72 1023.44 1023.27 1023.19 1023.18 1023.20 1023.23 1023.23 1023.20 1023.13 1023.02 1022.90 1022.78 1022.70 1022.67 1022.73 1022.86 1023.07 1023.34 1023.64 1023.95 1024.23 1024.46 1024.63 1024.73 1024.75 1024.72
1030.39 1030.30 1030.13 1029.91 1029.67 1029.44 1029.21 1028.98 1028.73 1028.44 1028.09 1027.69 1027.23 1026.74 1026.25 1025.78 1025.38 1025.06 1024.83 1024.70 1024.65 1024.65 1024.69 1024.72 1024.71 1024.67 1024.57 1024.43 1024.27 1024.11 1023.99 1023.92 1023.91 1023.99 1024.13 1024.32 1024.55 1024.77 1024.96 1025.11 1025.19 1025.19 1025.13 1025.01
Thickness
5541 5544 5545 5545 5542 5545 5546 5548 5552 5549 5536 5539 5547 5549 5550 5546 5544 5546 5548 5548 5548 5547 5545 5543 5543 5543 5543 5543 5543 5543 5543 5542 5541 5542 5542 5542 5541 5540 5540 5541 5541 5542 5543 5544
5532 5532 5530 5527 5525 5526 5530 5533 5537 5530 5521 5525 5531 5535 5539 5537 5535 5537 5537 5537 5536 5535 5533 5531 5530 5531 5532 5532 5532 5532 5531 5531 5531 5531 5530 5530 5529 5529 5528 5528 5529 5530 5531 5533
5524 5519 5513 5512 5512 5514 5518 5522 5523 5519 5510 5508 5514 5534 5535 5530 5524 5522 5523 5524 5524 5523 5522 5519 5518 5518 5519 5520 5520 5520 5520 5519 5519 5518 5518 5518 5518 5518 5518 5518 5518 5518 5519 5520
5507 5501 5500 5502 5503 5503 5509 5504 5502 5499 5505 5513 5506 5528 5536 5526 5517 5515 5515 5514 5513 5511 5510 5508 5506 5506 5506 5506 5506 5507 5507 5506 5506 5506 5507 5508 5509 5509 5508 5506 5506 5506 5507 5508
5493 5486 5487 5490 5491 5489 5490 5483 5483 5484 5489 5491 5492 5497 5526 5511 5511 5512 5508 5505 5502 5500 5498 5497 5495 5494 5493 5493 5493 5493 5493 5493 5493 5493 5494 5495 5495 5495 5494 5494 5494 5495 5495 5495
5474 5468 5471 5474 5470 5471 5467 5469 5467 5468 5475 5481 5490 5492 5515 5507 5505 5505 5499 5494 5491 5488 5486 5485 5483 5481 5480 5480 5480 5480 5481 5481 5480 5481 5481 5482 5482 5481 5482 5482 5482 5483 5483 5483
5463 5459 5454 5456 5458 5456 5460 5467 5471 5470 5471 5486 5471 5475 5495 5496 5490 5489 5486 5482 5478 5476 5475 5473 5472 5471 5469 5469 5468 5468 5468 5468 5467 5467 5468 5468 5468 5469 5469 5469 5470 5470 5470 5470
5458 5460 5449 5445 5450 5450 5451 5459 5467 5472 5480 5483 5450 5467 5483 5473 5469 5467 5465 5464 5463 5462 5462 5461 5461 5460 5459 5458 5457 5456 5456 5456 5455 5455 5455 5454 5454 5455 5456 5455 5455 5456 5456 5457
5451 5449 5431 5430 5431 5439 5439 5446 5446 5450 5447 5454 5468 5462 5465 5464 5458 5456 5453 5452 5452 5452 5449 5448 5448 5448 5448 5447 5446 5444 5444 5443 5442 5442 5441 5441 5441 5441 5441 5441 5441 5442 5442 5443
5429 5427 5420 5416 5419 5419 5425 5430 5431 5439 5447 5458 5465 5460 5467 5460 5455 5451 5446 5443 5441 5439 5437 5436 5436 5436 5436 5434 5432 5431 5430 5430 5429 5428 5428 5428 5427 5426 5426 5427 5428 5428 5429 5429
5409 5410 5408 5405 5407 5416 5408 5411 5419 5432 5434 5447 5456 5462 5452 5450 5444 5440 5435 5431 5428 5426 5425 5424 5424 5423 5422 5421 5419 5418 5417 5416 5416 5415 5415 5414 5414 5413 5413 5414 5414 5414 5414 5415
5395 5402 5405 5403 5390 5387 5397 5404 5407 5418 5421 5420 5437 5445 5427 5425 5422 5419 5417 5415 5413 5412 5411 5411 5410 5410 5409 5408 5406 5405 5404 5403 5402 5402 5401 5401 5401 5401 5401 5401 5401 5400 5400 5401
5381 5385 5396 5400 5386 5374 5375 5379 5380 5387 5402 5411 5422 5433 5410 5406 5405 5402 5401 5402 5400 5399 5398 5397 5396 5395 5395 5395 5394 5393 5392 5391 5389 5388 5388 5388 5388 5388 5388 5388 5388 5387 5387 5388
5375 5374 5386 5400 5401 5383 5372 5370 5367 5375 5393 5404 5410 5419 5411 5405 5399 5394 5391 5389 5387 5386 5385 5384 5383 5382 5382 5382 5381 5380 5379 5377 5376 5376 5375 5375 5375 5375 5375 5375 5374 5374 5374 5375
5363 5367 5365 5369 5370 5368 5369 5370 5364 5363 5381 5390 5402 5398 5403 5395 5387 5383 5379 5377 5375 5375 5374 5373 5372 5371 5370 5369 5368 5367 5366 5365 5363 5363 5363 5362 5362 5361 5361 5361 5361 5361 5362 5362
5347 5352 5349 5352 5355 5355 5356 5364 5364 5363 5369 5374 5377 5381 5381 5373 5370 5368 5366 5364 5364 5365 5363 5362 5360 5359 5357 5356 5355 5354 5353 5352 5351 5350 5350 5349 5349 5348 5348 5348 5348 5348 5350 5350
5339 5336 5344 5358 5341 5342 5359 5362 5357 5359 5358 5361 5370 5378 5364 5359 5358 5357 5355 5353 5353 5353 5351 5349 5348 5346 5345 5343 5342 5341 5340 5339 5338 5338 5338 5337 5336 5336 5336 5336 5336 5336 5337 5338
5325 5329 5334 5340 5333 5343 5370 5349 5349 5348 5347 5345 5347 5351 5350 5347 5345 5344 5343 5344 5343 5341 5339 5337 5335 5333 5332 5330 5328 5328 5327 5326 5325 5325 5325 5324 5324 5324 5323 5323 5324 5324 5324 5325
5319 5322 5327 5330 5338 5352 5351 5337 5332 5332 5338 5336 5334 5334 5333 5331 5333 5339 5334 5332 5330 5328 5326 5324 5322 5320 5318 5317 5316 5314 5314 5313 5313 5313 5313 5312 5311 5311 5312 5312 5312 5312 5313 5313
5304 5307 5318 5320 5330 5340 5347 5326 5318 5321 5331 5327 5322 5321 5320 5319 5334 5340 5324 5319 5317 5314 5312 5311 5309 5307 5306 5305 5304 5302 5302 5302 5302 5301 5301 5299 5299 5299 5300 5300 5301 5301 5301 5302
5300 5302 5307 5313 5320 5335 5317 5305 5307 5321 5331 5313 5309 5308 5307 5310 5315 5312 5307 5306 5304 5302 5300 5298 5296 5295 5294 5293 5292 5291 5291 5290 5290 5288 5288 5287 5287 5287 5288 5288 5289 5289 5290 5291
5302 5305 5299 5303 5309 5321 5296 5296 5303 5308 5299 5297 5298 5297 5295 5294 5293 5292 5292 5292 5290 5289 5287 5286 5285 5283 5282 5281 5280 5280 5279 5278 5277 5277 5277 5276 5276 5276 5276 5277 5277 5277 5278 5280
5289 5295 5302 5300 5306 5294 5283 5284 5283 5282 5282 5284 5285 5283 5282 5281 5281 5280 5279 5278 5277 5276 5276 5275 5273 5272 5271 5269 5269 5269 5268 5267 5266 5266 5266 5266 5266 5265 5266 5266 5267 5267 5268 5269
5278 5266 5275 5278 5284 5278 5274 5272 5271 5270 5271 5272 5272 5271 5272 5271 5270 5268 5267 5267 5266 5265 5264 5263 5262 5261 5260 5259 5258 5257 5257 5256 5255 5255 5255 5256 5256 5256 5256 5257 5257 5258 5259 5260
5273 5263 5267 5269 5270 5267 5269 5268 5266 5264 5262 5262 5262 5261 5261 5261 5260 5259 5258 5257 5255 5254 5252 5252 5251 5250 5249 5249 5248 5248 5247 5246 5246 5245 5246 5246 5246 5247 5247 5247 5247 5248 5250 5251
5259 5257 5266 5277 5267 5264 5267 5263 5259 5257 5256 5255 5254 5253 5253 5252 5251 5250 5248 5246 5244 5243 5242 5241 5241 5240 5239 5239 5239 5238 5238 5237 5236 5237 5237 5237 5237 5237 5237 5238 5239 5240 5241 5243